Terminal Aerodrome Forecast
Issued by NWS

Current Version | Previous Version | Graphics & Text | Print | Product List | Glossary On
Versions: 1 2 3 4 5 6 7 8 9 10 11 12 13 14 15 16 17 18 19 20
900
FTUS41 KRLX 241401 AAB
TAFCKB
TAF AMD
KCKB 241401Z 2414/2512 24003KT P6SM BKN010
     FM241500 25005KT P6SM SCT010 SCT050
     FM241700 26008KT P6SM BKN050
     FM242300 30005KT P6SM SCT250
     FM250600 34003KT P6SM VCFG SCT010=

USA.gov is the U.S. government's official web portal to all federal, state and local government web resources and services.